Temp
15 15 15 15 15 15 15 15 15 16 16 16 16 16 15 15 15 15 15 15 15 15 15 15 15 15 16 17 17 16 16 16 16 16 16 16 16 16 16 16 16 16 16
15 15 15 14 14 14 14 15 15 15 15 15 15 15 15 15 15 15 15 15 15 15 15 15 14 15 15 16 16 16 16 16 16 16 16 15 15 15 15 15 15 15 16
14 14 14 14 13 13 13 14 14 14 15 14 14 14 14 14 14 14 14 14 14 14 14 14 14 13 14 14 16 16 16 15 15 15 15 15 15 15 15 15 15 16 15
14 13 14 13 13 13 13 13 14 14 14 14 15 15 14 14 14 14 14 14 14 13 13 13 14 14 14 14 14 15 16 16 15 14 14 14 14 14 15 14 14 14 14
14 13 13 13 12 12 13 13 13 13 14 14 14 14 13 14 14 13 14 13 13 12 13 12 12 13 13 13 14 14 14 14 14 14 13 13 13 14 13 14 13 14 14
14 12 12 12 12 12 12 12 12 12 12 13 13 13 13 13 12 13 13 12 12 12 12 12 13 12 12 13 13 13 13 14 14 14 13 13 13 13 14 14 13 13 13
13 13 12 11 11 12 12 11 12 12 12 11 12 14 13 12 12 12 12 12 11 11 11 11 12 12 12 12 12 12 12 13 13 13 13 12 12 12 13 13 13 13 13
13 12 11 11 11 11 11 11 11 12 12 11 13 13 15 14 12 11 11 11 11 10 10 10 11 11 11 11 11 12 12 12 12 13 13 13 13 13 12 13 13 12 12
13 12 12 11 10 10 11 10 10 10 12 11 11 13 14 15 14 11 10 9 10 10 10 10 10 10 10 10 11 11 11 12 12 12 12 12 12 12 13 12 12 12 11
12 12 12 12 11 10 10 10 10 10 10 11 10 10 11 12 14 14 11 9 9 10 10 10 9 9 9 9 9 10 11 11 11 12 11 11 11 11 12 11 11 10 10
11 12 11 11 11 10 9 9 9 9 9 10 11 11 10 11 11 12 14 13 9 9 9 9 9 9 8 8 8 9 10 10 10 10 10 10 11 11 10 10 10 9 9
11 11 11 11 10 9 9 8 8 8 9 9 9 10 10 11 12 12 13 13 12 10 8 8 8 8 8 8 9 9 10 10 10 10 9 9 10 10 10 10 9 9 8
11 11 11 11 10 10 9 8 8 8 8 8 9 9 9 9 10 10 11 12 11 9 8 7 7 7 7 7 8 9 9 9 10 10 9 8 8 9 9 9 8 8 8
11 11 11 10 10 9 9 8 7 7 8 8 8 8 9 9 8 8 9 10 10 9 8 8 6 6 7 7 8 8 8 9 9 9 8 8 8 8 7 7 7 7 6
11 11 10 9 9 8 8 7 7 7 7 7 7 7 8 8 7 7 7 8 9 9 9 8 7 6 6 6 7 7 8 8 8 8 8 8 8 7 7 6 6 5 5
11 10 10 9 8 7 7 6 7 7 7 7 7 7 7 7 7 6 6 6 6 8 9 7 6 5 5 6 6 6 6 7 7 7 7 7 6 6 5 5 5 5 5
10 10 9 8 7 7 6 6 6 6 6 7 6 7 7 7 7 6 6 6 6 6 8 6 5 5 5 4 4 5 5 6 5 6 6 6 6 5 5 4 4 4 3
9 8 8 7 7 7 6 6 6 6 6 5 6 6 6 6 6 5 5 5 5 6 7 7 5 4 4 4 4 4 4 5 5 5 5 5 4 4 4 4 3 3 2
9 8 7 7 6 7 6 6 6 5 5 5 5 5 5 5 5 5 5 5 5 5 6 6 5 4 4 4 4 3 3 3 4 4 4 4 3 3 3 3 2 2 1
7 7 7 6 7 6 6 6 5 5 4 5 5 5 5 5 4 4 4 4 5 5 4 5 5 4 4 3 3 3 2 2 2 3 3 3 2 2 2 1 1 0 0
7 7 6 7 6 6 5 5 5 4 4 4 4 4 4 4 4 4 4 4 4 4 4 4 4 3 3 2 2 2 2 1 1 1 1 1 1 1 1 0 0 -0 -0
7 7 6 6 5 5 5 4 4 3 3 3 3 3 3 3 3 3 3 3 3 3 3 3 4 3 2 2 2 2 1 0 -0 -0 -0 -0 -0 -0 -0 -0 -1 -1 -1
7 6 5 5 5 4 4 4 3 3 3 2 2 2 2 2 2 2 2 2 2 2 2 3 3 3 2 2 2 1 1 0 -1 -1 -0 -1 -1 -1 -1 -1 -1 -1 -2
6 5 5 5 4 4 3 3 3 2 2 2 1 1 1 2 1 2 1 1 1 1 1 2 2 2 2 2 2 1 1 -0 -1 -1 -1 1 -2 -1 -2 -2 -2 -2 -2
4 4 4 4 4 3 3 3 2 2 1 1 1 1 1 1 1 1 0 -1 -1 -1 -0 1 1 1 1 1 1 0 -0 0 1 -1 -1 -0 -1 -1 -1 -2 -3 -3 -3
4 4 4 4 3 3 2 2 2 2 1 1 1 1 0 1 1 0 -0 -1 -1 -2 -1 -1 -1 -1 0 0 0 0 0 1 -0 -1 -2 -2 -2 -2 -1 -3 -3 -4 -4
Height
836 837 837 837 837 836 836 837 837 836 836 835 835 835 835 834 833 834 833 831 830 831 830 828 828 828 826 825 824 825 825 823 823 823 824 824 825 826 826 826 827 827 828
836 836 837 836 836 837 836 836 836 835 835 834 834 834 835 834 833 833 832 832 829 828 828 827 827 826 825 824 823 822 823 824 821 821 821 821 822 824 824 825 825 826 826
835 835 836 835 835 834 835 835 836 834 834 834 834 833 832 832 832 832 831 829 829 826 826 825 824 824 824 823 821 820 820 821 819 818 819 819 821 822 823 823 824 824 825
834 834 835 835 834 834 835 834 834 834 834 833 832 832 831 831 830 830 830 829 828 826 826 823 822 822 822 821 820 819 818 819 819 817 819 818 819 820 822 823 824 824 824
832 833 834 834 833 833 834 834 833 833 833 832 832 831 830 830 830 829 829 827 826 825 825 822 822 821 820 820 818 818 817 817 817 817 817 818 819 817 817 820 822 823 824
830 831 831 832 833 833 833 833 833 833 832 832 831 829 829 828 828 828 827 827 827 825 824 823 823 821 820 818 817 816 816 816 816 817 817 818 819 818 818 816 819 824 824
828 829 830 831 830 830 831 831 831 831 830 830 829 827 826 825 825 824 825 825 825 825 824 824 823 822 821 818 816 815 816 816 817 817 818 819 818 820 820 819 819 821 822
826 827 828 828 827 828 829 829 829 830 830 829 827 827 822 823 823 823 823 825 824 824 824 824 824 823 821 820 817 815 815 817 818 818 818 818 817 819 819 817 817 817 819
823 823 824 824 825 825 826 827 827 828 828 827 826 826 822 817 820 821 822 822 823 824 824 825 824 823 822 820 819 816 815 817 817 817 815 818 816 818 816 817 817 818 820
819 820 820 821 823 824 825 825 825 825 826 825 825 824 824 823 818 815 820 821 821 822 823 823 823 822 822 821 819 818 816 817 816 817 818 818 819 817 819 819 819 820 821
817 817 818 818 820 821 822 823 823 822 823 823 823 822 822 821 820 818 813 815 821 821 822 823 822 823 822 821 820 819 818 819 819 819 820 819 820 823 823 823 823 824 823
814 814 815 816 818 818 819 819 819 819 820 820 820 820 819 818 816 816 814 812 815 819 820 820 821 822 822 821 821 820 820 820 820 823 823 823 824 827 827 827 826 827 827
811 812 813 814 815 816 816 817 817 818 818 818 818 817 816 816 816 815 814 812 815 818 820 820 819 821 822 821 821 822 821 821 822 824 825 825 827 829 829 829 828 828 828
808 809 810 811 811 812 813 813 814 814 815 815 816 816 815 815 813 813 813 813 814 816 818 819 819 821 821 820 821 822 821 821 823 824 826 827 828 828 829 829 830 828 829
804 805 808 809 810 811 811 811 811 811 812 813 814 814 814 814 813 812 812 812 812 813 815 817 819 821 820 820 820 821 821 822 824 825 827 829 830 829 830 830 829 830 829
802 803 805 806 808 809 810 810 810 810 810 811 812 812 812 812 812 810 810 810 810 811 812 813 817 819 819 819 820 820 820 822 824 825 827 828 829 830 829 829 829 830 830
798 800 801 803 803 805 807 808 809 809 808 808 809 810 811 811 811 810 809 809 810 809 811 814 816 818 818 819 820 819 821 822 824 826 828 827 828 829 829 829 830 830 830
796 797 800 801 800 801 802 804 806 806 806 806 807 809 809 809 808 809 807 808 809 808 809 812 813 814 816 818 818 820 822 824 825 826 827 828 828 829 829 830 831 831 831
793 795 797 797 796 797 798 799 801 801 803 804 806 807 807 806 806 805 805 806 807 805 806 808 809 811 813 816 817 820 822 824 825 826 828 827 829 831 831 831 831 832 834
792 793 794 794 793 794 795 795 796 798 800 801 802 803 803 802 803 803 803 803 803 803 805 805 806 808 811 814 817 819 822 824 826 826 827 828 830 831 832 832 833 834 834
788 789 790 790 790 792 793 794 794 795 797 797 798 798 798 798 797 799 799 800 801 801 802 803 805 806 809 812 815 817 820 823 825 827 827 828 830 831 832 833 834 834 834
784 784 786 786 788 789 791 793 794 795 796 795 795 797 796 796 795 796 798 798 799 799 801 802 804 806 808 810 813 815 819 823 826 826 827 828 830 831 832 833 834 834 834
779 781 782 783 786 787 789 789 790 790 793 793 792 793 794 793 794 794 795 796 797 798 800 802 803 805 806 808 811 814 817 820 822 824 826 829 830 832 833 834 834 835 835
775 778 779 780 783 785 787 787 788 789 791 791 792 792 792 791 793 792 794 795 796 797 798 800 802 803 804 807 810 812 815 818 822 824 826 829 830 832 833 834 834 835 835
771 774 777 779 781 781 783 785 787 787 788 789 790 790 791 790 791 792 793 795 796 797 799 800 801 802 804 807 811 813 816 820 823 825 826 828 830 831 833 834 833 833 833
769 771 773 777 778 780 781 783 786 786 787 788 790 789 789 789 789 791 793 795 797 799 800 801 802 804 807 809 812 815 817 819 821 825 826 828 829 830 831 832 833 833 833
Wind_Speed
3 2 1 1 1 2 3 4 4 5 5 4 3 4 3 4 3 4 4 7 7 8 8 7 8 8 8 9 9 11 12 10 10 13 15 14 14 14 13 12 12 12 12
2 2 1 0 1 2 3 4 6 6 6 4 4 3 4 4 5 6 6 7 10 10 11 10 9 9 9 8 9 10 14 15 12 10 11 14 14 11 8 7 7 7 7
1 1 1 0 2 3 3 3 5 5 5 4 5 6 8 7 7 8 8 7 8 11 12 11 10 9 9 8 9 11 12 14 12 11 12 11 10 8 6 7 8 6 4
2 0 0 1 2 2 3 4 4 5 6 6 7 7 7 7 8 7 7 7 7 7 8 9 8 8 8 6 6 6 9 11 14 12 10 11 13 11 5 4 2 4 5
1 1 1 1 2 2 3 4 4 5 6 7 7 7 7 7 8 8 8 7 7 7 6 8 6 5 4 2 3 4 7 8 8 10 9 4 12 12 6 8 6 6 7
3 2 1 1 1 2 3 4 4 4 4 6 7 7 8 7 7 7 7 6 6 5 5 4 5 4 5 4 1 3 5 6 6 8 4 3 5 12 13 13 9 10 8
4 2 2 2 2 1 3 3 3 4 5 4 6 6 8 7 6 5 4 4 3 2 2 2 4 4 4 4 3 1 4 2 3 5 6 7 7 7 10 9 11 11 12
5 4 4 4 3 3 4 3 3 4 5 5 4 4 3 5 6 5 3 2 1 1 2 2 2 2 2 1 2 0 2 2 1 2 3 4 6 8 10 8 10 12 11
7 6 6 4 4 4 4 5 5 5 7 6 6 6 3 4 2 4 4 3 4 5 4 4 2 1 1 2 3 4 3 2 1 3 2 3 4 7 7 7 7 9 15
9 8 6 5 5 5 5 5 6 6 6 8 6 9 10 6 4 3 5 5 6 4 4 3 3 1 1 2 4 5 6 8 4 2 6 10 12 11 9 13 16 15 15
9 8 7 6 7 6 7 7 7 7 7 8 9 7 8 9 10 9 7 5 6 5 4 4 3 3 2 3 4 6 6 8 10 7 11 12 12 10 10 12 12 11 13
8 8 8 8 8 8 9 8 8 8 9 9 9 10 10 7 8 9 7 7 8 5 4 3 4 4 4 4 6 6 5 5 6 7 7 9 9 7 7 7 11 11 10
9 9 10 11 10 10 10 9 8 8 8 9 10 10 11 12 10 9 8 6 6 5 4 2 3 5 5 5 6 5 4 3 2 2 3 6 6 7 8 6 7 10 11
9 9 11 12 12 12 11 10 8 8 8 8 10 9 9 9 8 8 8 8 4 6 6 4 4 5 7 8 6 4 3 2 3 2 4 2 6 8 8 9 8 9 9
10 10 12 12 12 12 10 8 8 7 7 8 9 9 9 8 7 6 6 7 6 4 5 7 4 8 8 8 7 5 3 3 4 5 4 5 7 8 6 7 8 6 8
11 11 12 12 12 11 9 8 7 7 7 8 8 9 9 8 7 7 6 6 6 5 3 5 5 8 8 6 6 4 4 3 3 4 4 7 8 7 8 9 6 8 8
12 13 13 12 11 10 8 7 7 7 7 8 9 10 11 9 8 7 8 8 7 6 5 4 6 8 7 6 5 3 3 3 3 4 5 8 7 6 6 6 8 9 6
12 12 12 11 10 9 9 9 8 7 8 8 9 11 12 10 10 10 9 9 11 12 7 11 8 9 8 6 5 4 4 4 4 4 6 11 5 8 7 7 8 5 6
12 13 13 11 10 9 9 8 7 7 8 9 10 12 13 14 16 17 15 15 14 9 11 10 7 11 9 11 9 9 8 8 9 13 12 13 11 9 13 12 11 9 8
13 13 12 9 8 8 8 7 7 8 9 11 15 17 20 21 23 16 16 14 12 11 10 9 9 10 10 12 12 11 7 8 8 11 13 12 10 10 12 11 8 5 5
15 13 12 10 8 9 8 8 9 10 13 12 14 15 17 21 21 14 15 14 13 10 8 11 7 6 8 10 11 11 7 9 7 7 8 10 11 10 11 8 6 3 4
15 14 12 10 10 9 7 8 10 9 10 11 12 14 13 9 8 10 14 14 14 10 11 9 8 9 8 11 13 11 12 7 3 8 8 7 9 10 7 7 5 2 3
15 15 14 13 11 9 7 8 9 9 9 9 11 14 14 11 11 11 10 9 8 11 11 10 10 8 10 12 12 11 12 10 4 8 9 4 7 5 4 4 2 2 0
17 16 15 15 13 9 8 8 8 7 8 10 14 13 8 9 10 12 10 9 8 7 7 9 7 9 8 10 10 11 12 10 8 6 8 3 5 4 4 3 3 2 3
14 13 14 16 16 10 9 10 9 10 8 6 7 8 11 11 11 14 11 11 12 13 9 7 9 10 10 11 10 11 11 11 4 3 4 3 4 5 4 4 3 4 3
12 14 15 16 16 11 11 11 13 11 10 7 8 8 8 9 14 13 12 14 13 10 11 14 14 14 13 12 12 6 9 6 5 3 3 3 6 5 4 3 3 2 1
Wind_Direction
199 192 218 293 280 322 324 323 318 315 320 316 308 308 317 325 319 307 300 299 285 282 287 301 298 292 294 298 295 282 274 259 259 256 250 246 248 246 246 248 255 258 258
186 176 198 308 347 344 329 316 304 308 304 299 301 300 301 311 303 300 302 297 297 289 290 287 301 303 294 284 285 281 279 271 259 258 254 247 242 231 224 238 245 257 267
164 178 227 337 285 299 313 308 302 305 299 296 290 288 295 293 297 296 293 291 292 305 289 284 290 291 292 291 275 264 271 270 272 260 249 243 231 218 222 238 241 239 245
174 140 299 309 293 321 318 318 314 305 292 294 292 287 286 292 289 290 293 301 304 303 307 296 283 283 282 292 294 273 261 263 248 235 216 182 177 156 164 184 231 256 269
197 166 204 251 277 308 320 322 329 317 300 294 291 290 294 290 290 293 292 301 305 303 286 295 287 283 270 290 302 302 287 265 245 231 202 211 205 214 289 248 264 256 232
228 205 204 224 275 324 318 316 302 299 294 294 289 280 277 278 278 282 290 301 303 309 298 271 270 289 264 258 356 349 282 254 215 202 187 191 214 230 226 234 232 233 223
226 225 203 214 240 253 265 269 272 271 270 273 281 260 261 259 255 257 269 281 308 333 329 279 268 275 293 292 284 358 9 325 212 172 171 182 183 214 219 217 215 211 199
227 225 211 211 225 229 246 246 247 264 269 257 271 284 274 226 239 242 238 248 269 283 328 333 319 314 332 341 20 132 89 36 188 193 205 193 196 223 222 216 200 176 162
220 216 216 215 225 230 233 239 243 247 264 256 240 259 246 245 278 208 212 237 252 272 267 274 289 324 10 45 46 46 110 158 146 212 214 242 211 220 192 195 176 148 121
215 220 222 227 232 238 236 237 237 239 242 256 247 238 247 268 271 245 202 224 224 232 244 254 260 242 137 100 89 109 112 68 51 113 121 105 80 82 98 104 99 100 97
217 225 226 231 237 241 239 236 237 237 239 246 247 242 242 244 246 256 272 193 228 226 250 264 254 226 175 130 114 129 129 87 54 64 74 72 74 78 77 87 89 88 94
220 231 237 239 241 240 239 238 237 238 241 244 247 244 241 242 235 235 244 253 251 212 230 247 225 204 181 153 156 137 120 100 75 53 70 68 75 79 87 85 100 88 83
226 237 239 241 242 245 245 244 242 242 244 247 248 248 244 245 247 246 252 248 242 209 205 196 176 187 179 158 166 158 143 126 95 63 92 82 90 107 103 100 95 94 87
227 234 240 238 237 240 243 243 241 243 246 250 253 249 251 248 237 232 238 224 213 207 205 182 178 194 188 184 177 171 137 164 229 223 165 92 129 126 109 95 87 86 90
232 240 242 240 239 242 241 236 241 246 247 251 252 246 242 241 229 222 223 223 236 209 204 193 173 196 182 174 176 173 152 142 135 170 195 173 163 155 159 112 106 98 81
240 243 241 238 238 239 236 235 245 247 247 251 249 245 238 233 222 213 204 208 213 225 209 168 188 190 178 176 174 164 143 154 178 170 177 170 161 141 125 127 122 95 97
239 238 233 228 224 222 224 231 242 247 246 249 247 242 238 236 232 222 208 204 214 190 228 176 172 170 154 160 147 136 137 142 134 171 171 174 170 147 132 124 110 130 103
236 229 222 218 212 210 214 221 236 251 251 246 246 244 239 231 231 234 229 226 224 204 194 200 166 163 163 163 158 152 169 155 154 158 197 176 163 147 144 117 137 116 91
232 223 219 211 203 213 219 234 246 252 253 249 248 245 244 241 246 247 237 232 229 214 196 194 162 176 176 189 179 173 160 150 135 132 129 127 138 114 124 130 121 115 97
220 212 210 203 204 206 216 229 244 243 238 252 264 262 259 262 253 234 237 233 221 205 201 196 182 164 175 185 185 175 162 165 153 142 142 137 127 122 126 123 121 107 77
213 208 204 203 196 210 222 228 233 248 262 269 272 271 270 267 245 229 235 230 231 208 188 208 188 163 166 171 184 187 162 174 168 159 141 135 143 142 123 112 102 68 38
205 201 202 199 198 208 227 230 261 255 256 259 262 275 271 232 245 237 242 233 218 211 208 207 210 200 184 183 186 180 166 159 171 185 165 151 151 150 134 112 117 82 41
205 204 201 198 199 202 234 240 243 235 237 245 264 271 254 258 256 221 189 178 203 210 213 216 218 197 181 186 183 179 180 175 160 164 155 140 148 138 139 122 196 245 86
205 203 201 200 199 216 235 222 216 226 253 266 261 251 258 232 213 203 214 190 189 193 200 211 198 187 184 185 192 190 173 158 129 142 152 152 167 164 156 133 153 183 111
198 205 207 207 210 219 214 214 217 228 244 259 254 241 232 227 216 203 194 151 126 108 107 162 164 155 150 154 161 159 147 146 134 133 167 150 160 159 163 172 168 142 119
200 206 212 219 221 220 215 217 216 218 226 239 243 239 226 213 193 206 187 160 142 146 139 128 123 126 135 136 142 134 150 157 133 140 185 155 158 167 168 177 170 163 244